Theta_e
317 314 315 315 316 317 317 317 317 319 318 318 316 317 317 320 320 320 320 320 320 320 320 320 320 320 320 321 320 320 320 320 321 320 320 340 347 346 348 349 349 350 350 348
317 315 317 319 319 319 318 318 317 318 320 318 319 319 320 320 319 320 321 321 321 322 321 321 321 322 324 325 326 330 328 329 331 331 329 324 326 340 348 346 344 346 347 350
317 319 319 319 318 319 319 319 318 318 318 318 320 318 319 319 320 321 321 321 321 321 321 321 321 321 321 321 322 322 322 322 322 322 325 325 324 327 337 342 344 340 344 346
318 319 320 319 319 318 318 318 318 318 319 318 319 318 319 319 320 320 321 321 321 321 321 321 322 321 321 321 321 322 322 322 322 322 322 322 323 325 325 325 335 343 339 340
317 318 319 318 318 318 317 320 320 320 318 318 319 318 318 319 320 320 319 320 320 320 320 320 321 321 321 321 322 322 322 322 321 322 322 322 321 321 324 326 328 330 338 339
317 318 319 319 319 319 320 319 319 320 318 318 319 319 319 320 321 320 319 320 320 320 320 320 320 321 320 320 320 320 320 321 321 322 322 322 321 321 322 325 326 330 328 336
318 317 318 319 320 319 319 317 318 320 321 321 322 323 321 322 320 319 317 320 320 320 319 318 319 319 318 318 319 319 320 319 319 320 320 320 321 320 324 325 327 329 334 329
320 321 320 321 321 320 321 320 324 327 324 322 322 325 325 320 319 320 320 320 319 319 318 317 318 317 316 318 318 318 318 318 318 318 319 319 320 321 322 323 327 328 332 334
322 322 321 321 321 319 320 319 320 320 322 321 320 320 321 321 319 319 320 319 319 318 318 317 316 317 317 318 318 317 317 317 317 318 317 318 318 320 321 321 322 328 329 331
320 321 320 321 321 320 320 319 322 320 324 323 321 320 322 320 318 317 316 317 317 317 317 317 317 317 317 317 317 317 317 317 317 317 317 317 317 317 318 318 319 323 326 330
319 320 321 320 322 321 321 318 318 320 324 319 320 320 319 318 316 316 316 316 316 316 317 317 317 317 317 317 317 316 316 316 316 316 315 315 316 316 316 316 317 319 325 326
321 320 322 321 319 321 320 318 319 321 322 320 319 320 319 319 316 316 315 316 317 317 318 316 316 315 315 314 315 315 316 316 315 316 316 315 315 314 315 316 316 316 321 324
320 319 320 320 319 319 321 320 318 320 320 321 321 322 319 317 316 318 317 317 317 316 315 314 314 314 314 314 314 313 313 313 314 314 314 314 315 315 315 315 316 315 316 320
318 319 320 321 325 322 323 322 320 316 315 316 316 316 316 316 317 317 316 315 315 314 314 314 313 312 312 311 311 310 310 309 308 309 310 311 312 312 313 314 315 316 315 318
316 317 318 317 318 320 321 321 321 321 319 317 316 317 316 315 315 314 315 314 314 314 313 312 312 311 310 310 309 308 308 307 306 306 306 307 308 309 310 312 313 313 315 315
316 316 317 318 318 318 318 319 321 321 320 319 317 316 315 316 315 314 313 313 313 312 311 311 310 309 309 308 308 307 306 305 304 304 304 304 303 304 306 308 310 311 312 315
317 318 317 318 318 318 320 318 318 318 318 317 315 316 314 313 313 312 312 312 311 310 310 309 309 309 308 307 305 303 302 302 303 302 302 303 303 303 303 305 306 308 310 311
317 318 317 317 318 320 318 317 318 318 319 318 318 315 313 313 313 313 312 311 310 310 310 309 309 307 306 305 302 301 300 300 300 301 302 301 301 301 302 304 303 305 308 309
313 316 317 320 318 318 317 317 319 319 320 316 315 314 314 313 313 313 312 310 311 309 309 308 307 305 304 301 300 299 299 299 299 299 300 300 300 301 302 303 305 305 306 307
314 315 316 317 318 320 320 319 317 317 319 316 314 313 312 312 311 310 310 311 309 309 308 306 305 304 300 299 299 299 299 299 300 301 301 301 301 300 300 302 303 303 304 306
316 316 316 314 314 315 317 318 315 319 318 315 313 312 311 310 310 310 310 309 308 307 306 305 303 300 298 299 298 298 298 299 301 301 301 302 302 302 301 300 301 302 304 306
316 317 317 316 317 314 318 318 318 316 315 313 312 311 311 310 309 309 309 307 307 305 304 302 298 298 298 298 297 297 298 301 301 302 304 304 303 302 301 300 300 302 304 304
318 316 316 317 316 316 316 317 316 314 313 312 311 310 309 309 309 308 307 305 304 303 301 298 297 297 298 298 297 298 300 300 303 304 304 304 303 303 301 300 300 301 302 304
317 316 314 317 317 317 316 315 314 313 312 310 310 309 308 309 308 305 304 303 302 300 298 296 296 296 298 299 299 299 299 302 304 304 305 305 303 303 302 301 300 300 302 304
315 316 316 315 315 315 315 314 313 312 310 309 309 307 308 307 304 304 303 301 299 297 295 295 294 295 297 299 301 302 302 304 305 305 305 305 301 300 300 300 300 300 300 302
314 314 313 314 314 314 314 313 312 309 309 308 307 308 306 304 304 302 300 298 297 296 295 295 294 295 297 298 301 302 304 305 306 306 306 305 301 299 300 299 300 300 300 302
Wind_Speed
12 2 6 12 11 11 7 8 8 5 4 13 9 6 7 5 6 7 19 22 26 20 16 15 16 13 15 16 19 19 17 19 15 19 16 22 30 32 35 36 40 39 37 41
4 10 14 15 14 14 12 5 6 6 6 2 4 5 2 3 7 15 12 11 11 8 6 7 3 7 9 8 4 1 2 3 5 8 11 13 21 31 36 36 37 38 45 47
10 11 17 17 7 5 2 3 6 6 7 7 3 4 5 8 12 22 22 22 20 11 21 21 17 13 11 10 9 11 11 13 15 11 8 11 15 22 29 37 39 38 40 45
8 11 14 2 6 5 5 7 9 10 2 2 5 4 5 8 8 15 4 21 21 21 18 13 13 13 12 12 8 8 11 14 17 19 20 21 21 24 29 33 39 40 42 45
10 9 8 6 7 8 7 6 7 7 7 6 9 3 7 9 11 10 9 21 18 17 14 13 9 8 7 6 8 8 11 13 18 20 22 24 28 30 31 36 40 40 44 47
12 16 8 6 4 6 6 5 7 5 1 2 15 6 7 10 10 7 11 16 15 13 11 7 4 2 8 13 13 14 18 21 20 22 24 28 31 35 36 39 41 43 45 48
6 9 10 10 5 5 2 5 2 4 1 6 1 3 8 4 9 11 9 17 14 10 7 4 4 6 13 16 17 19 19 22 21 23 23 24 28 32 32 40 39 40 45 47
3 5 5 7 4 4 2 6 4 4 3 4 3 6 4 7 16 20 17 12 7 4 2 4 8 13 17 16 15 16 20 20 24 26 26 24 28 30 32 35 35 36 41 46
0 5 2 5 3 3 4 3 4 0 5 1 4 6 6 16 10 11 8 7 10 8 7 8 16 17 17 16 19 20 23 26 25 29 29 28 26 29 32 37 36 35 37 42
1 3 4 6 9 1 2 4 2 3 3 3 4 5 5 4 5 6 3 4 3 6 10 12 3 4 10 15 18 19 19 21 23 24 24 27 29 28 29 33 40 37 35 37
3 3 3 7 1 4 5 4 3 4 5 4 1 3 9 4 6 5 5 8 11 15 6 5 10 15 18 15 17 21 24 22 22 24 26 26 26 27 31 33 37 39 34 34
3 4 2 6 11 10 9 6 5 4 4 2 4 8 11 4 6 8 14 16 12 5 10 15 17 16 16 18 17 17 20 20 17 16 16 20 27 31 30 31 33 37 37 36
3 2 1 7 6 5 9 8 4 5 4 8 4 5 9 10 7 10 6 21 19 20 21 22 21 17 17 19 22 27 29 30 31 30 28 23 20 21 21 22 25 30 34 37
7 1 4 4 2 1 6 15 9 6 4 8 13 16 16 12 9 8 19 22 21 22 22 19 21 24 27 31 36 41 46 50 52 52 49 47 41 36 30 25 21 21 28 32
3 5 5 7 10 5 10 14 16 12 11 7 11 15 11 3 11 11 19 22 23 21 20 23 27 30 35 42 47 53 52 54 53 48 50 55 56 55 49 42 32 24 24 29
6 3 4 7 10 11 16 15 18 20 16 17 16 12 3 13 18 19 22 23 22 22 24 25 26 31 37 39 43 46 51 53 46 45 47 47 46 47 53 55 50 44 26 26
1 1 2 4 9 8 9 16 15 14 14 13 8 3 8 10 10 17 21 21 20 20 22 27 29 32 37 45 54 53 45 43 42 42 42 41 40 42 41 37 45 50 48 31
3 3 2 3 4 4 6 3 7 9 5 14 11 10 9 10 18 12 19 19 22 27 29 31 34 40 53 61 46 42 40 41 40 40 38 40 42 41 38 38 39 33 36 47
7 4 2 2 3 6 9 2 3 3 7 4 8 8 12 18 12 1 23 31 22 28 31 30 40 53 57 42 40 37 36 37 37 37 37 37 38 37 36 36 33 34 34 34
9 7 2 2 3 4 1 4 20 11 3 6 9 7 8 17 7 5 31 23 31 30 32 41 53 52 41 38 34 34 35 35 36 33 33 32 33 34 34 36 30 33 25 28
6 4 9 7 3 5 5 9 9 3 3 5 13 13 14 4 6 22 25 27 33 30 40 52 48 40 40 36 33 34 34 35 31 29 29 30 33 34 33 31 26 31 30 24
7 6 4 6 4 5 14 6 1 5 1 11 11 12 12 14 18 19 24 28 28 42 50 48 42 42 38 34 32 33 33 30 27 28 32 37 38 34 33 31 27 18 29 26
3 4 3 3 3 2 11 11 5 6 10 11 11 11 14 17 17 24 23 32 39 43 44 40 39 40 36 33 31 32 30 26 25 32 39 41 42 39 31 29 23 26 18 26
4 3 1 2 2 2 8 5 3 5 9 10 10 13 15 14 19 22 32 37 40 40 38 37 37 37 36 33 31 29 29 21 26 34 41 38 33 35 34 28 20 20 30 21
6 6 6 4 3 6 3 5 2 6 8 8 11 12 13 16 19 27 35 34 35 35 35 35 35 35 33 32 30 27 20 18 27 33 37 29 31 28 21 21 17 16 22 21
2 2 1 1 5 6 9 4 4 6 8 10 11 11 13 17 22 30 33 33 33 34 36 37 35 33 32 30 29 23 16 19 26 31 33 29 26 21 11 10 10 11 18 16
Wind_Direction
209 185 229 242 239 242 258 260 231 296 248 155 183 197 215 277 301 209 211 222 226 221 234 247 242 227 228 233 257 277 282 285 281 281 282 263 259 256 250 250 248 242 249 249
250 224 237 242 244 236 248 285 322 327 344 101 178 206 214 311 278 272 263 251 248 209 165 115 89 95 98 86 82 140 229 303 318 326 313 292 282 273 265 262 260 252 246 247
220 237 226 246 275 326 13 344 312 296 313 349 83 348 317 272 257 253 252 243 237 138 89 82 74 64 46 24 1 347 338 325 314 311 312 302 287 285 283 269 264 256 253 248
249 262 266 197 314 317 321 263 257 259 359 276 41 276 289 274 263 235 242 102 96 87 82 69 55 41 29 16 5 349 337 323 316 315 312 310 303 291 287 290 280 267 259 254
290 312 321 234 201 216 234 58 32 10 5 28 323 350 267 261 261 92 87 87 87 82 75 65 48 27 0 352 351 324 327 325 326 323 315 312 307 306 295 282 287 282 267 257
275 308 296 306 222 223 82 53 13 346 355 332 249 204 266 263 147 120 101 95 89 86 83 69 50 349 339 327 324 323 305 304 310 315 311 305 303 307 309 313 281 279 277 267
288 271 281 315 343 318 121 86 344 332 251 219 321 292 231 187 122 124 117 102 96 96 73 9 307 307 303 299 299 299 297 296 292 291 296 301 297 300 308 310 299 284 280 276
275 312 263 35 53 17 339 126 141 236 239 286 308 205 242 145 105 96 99 105 128 141 197 283 272 301 295 287 294 291 294 300 302 294 297 303 301 302 307 308 309 294 280 274
117 269 310 252 290 75 2 58 126 297 250 321 255 301 351 109 103 112 141 176 199 206 236 264 283 277 266 277 277 278 287 293 291 286 288 290 301 299 305 306 310 301 292 281
96 352 341 336 312 59 282 299 34 346 4 272 272 260 126 90 100 84 31 305 290 271 272 260 273 286 289 281 281 284 283 284 285 278 280 286 291 299 305 309 309 309 305 294
98 115 290 11 283 185 280 236 198 165 150 201 320 269 123 133 152 186 234 245 253 262 255 294 300 302 298 296 302 304 304 301 296 286 288 288 284 291 294 303 305 307 310 301
35 126 272 243 265 235 233 236 197 150 258 251 186 249 334 320 228 211 235 236 257 352 35 33 16 359 347 338 325 319 310 308 303 302 303 303 293 288 291 297 299 304 310 313
4 178 311 318 269 247 230 239 235 155 145 228 228 264 290 285 288 305 15 51 33 27 13 2 357 353 342 334 323 315 307 302 300 298 297 295 291 292 282 288 303 296 310 320
82 327 189 207 149 350 328 323 284 206 183 236 251 267 271 271 272 50 42 36 20 10 2 359 347 340 329 322 320 317 313 308 306 299 293 292 290 289 286 287 289 297 295 305
131 213 238 261 275 229 229 247 277 276 272 232 241 245 261 341 68 52 35 16 8 14 3 349 338 331 320 316 313 313 310 306 309 303 300 294 289 285 283 282 283 286 284 298
12 303 290 283 286 280 271 249 227 254 259 270 270 271 27 61 44 31 18 40 20 5 351 339 332 325 319 312 308 309 303 302 303 300 298 298 297 293 283 279 276 280 279 293
73 276 17 260 266 326 288 247 247 251 246 267 269 50 51 34 29 21 48 23 2 342 331 330 328 316 310 312 313 310 308 307 303 300 297 296 296 295 292 287 275 272 272 276
191 241 153 252 298 243 277 231 261 241 51 24 49 44 41 27 8 7 29 5 344 343 339 327 318 315 318 317 313 312 308 306 304 300 298 295 299 297 291 287 285 276 267 267
189 194 231 247 229 307 304 288 18 348 72 35 37 23 22 6 346 273 350 345 345 334 328 319 318 319 317 318 317 314 310 311 309 305 301 300 299 295 292 290 278 270 267 262
185 169 166 200 233 230 113 12 357 330 142 17 34 25 15 16 5 312 339 339 334 330 318 320 320 319 321 323 323 319 316 314 313 316 312 310 306 297 286 271 278 282 280 265
153 166 218 225 257 282 278 144 158 334 189 19 43 23 12 19 324 326 328 327 329 317 321 323 323 321 324 330 328 319 314 311 316 310 311 311 309 304 301 293 280 266 264 253
176 172 186 202 217 237 12 180 186 152 118 60 38 12 359 346 334 330 328 335 323 325 328 327 327 326 331 333 326 320 316 320 313 312 309 308 306 302 295 292 273 263 255 250
245 196 180 172 217 327 334 19 8 89 70 48 25 8 2 348 343 339 339 330 332 332 330 330 327 330 332 334 332 324 325 322 321 321 321 313 313 297 298 287 277 248 259 230
292 108 110 50 290 352 13 64 270 37 61 34 21 11 355 2 356 342 338 337 337 335 331 334 337 333 333 336 334 332 329 323 321 325 326 316 318 298 295 287 272 254 241 229
228 178 183 216 201 108 146 154 287 31 43 35 17 7 14 2 355 349 345 344 340 336 340 343 338 337 334 335 336 337 330 323 325 331 332 319 334 321 297 271 265 243 230 234
83 334 149 187 98 114 203 246 109 38 56 38 23 33 18 1 357 352 354 352 348 348 351 347 345 341 339 338 339 341 340 331 333 340 336 329 345 346 335 287 267 244 219 216